Location: Goheenville
(40.9070°N, 79.3720°W)
Time: 02:52:42
(UTC-04:00)

Meteor 2-10 Rocket - Visible Passes

Search period start: 29 July 2015 00:00
Search period end: 08 August 2015 00:00
Orbit: 735 x 884 km, 81.2° (Epoch: 27 July)

Date Brightness Start Highest point End Pass type
(mag) Time Alt. Az. Time Alt. Az. Time Alt. Az.
29 Jul 3.8 21:30:34 10° NNW 21:36:17 82° W 21:41:46 10° S visible
30 Jul 3.7 21:06:22 10° N 21:12:04 73° ENE 21:17:31 10° SSE visible
30 Jul 6.3 22:50:34 10° NW 22:53:29 14° W 22:56:03 10° WSW visible
31 Jul 6.0 22:25:26 10° NW 22:29:27 20° W 22:33:11 10° SW visible
01 Aug 5.6 22:00:41 10° NNW 22:05:24 27° W 22:09:51 10° SW visible
02 Aug 5.1 21:36:09 10° NNW 21:41:18 38° W 21:46:13 10° SSW visible
03 Aug 4.5 21:11:44 10° NNW 21:17:11 53° W 21:22:23 10° S visible
05 Aug 6.5 22:07:55 10° WNW 22:10:09 12° W 22:12:02 10° WSW visible
06 Aug 6.3 21:42:31 10° NW 21:46:08 17° W 21:49:27 10° SW visible
07 Aug 6.0 21:17:40 10° NW 21:22:05 24° W 21:26:14 10° SW visible
